This is the latest recevied weather packets stored in our database for station/object T10BNorth. If no packets are shown the sender has not sent any weather packets the latest 10 day(s).
| Time | Temp. | Humidity | Pressure | Rain* | Wind** | Luminosity | Snow |
|---|---|---|---|---|---|---|---|
| 1777656829 | 10° C | 58% | 1007.6 hPa | 0 mm | - | 888 W/m² | - |
| 1777656770 | 10° C | 59% | 1007.6 hPa | 0 mm | - | 886 W/m² | - |
| 1777656698 | 10° C | 60% | 1007.5 hPa | 0 mm | - | 886 W/m² | - |
| 1777656635 | 10° C | 58% | 1007.6 hPa | 0 mm | - | 891 W/m² | - |
| 1777656576 | 10° C | 59% | 1007.6 hPa | 0 mm | - | 900 W/m² | - |
| 1777656516 | 10° C | 60% | 1007.6 hPa | 0 mm | - | 904 W/m² | - |
| 1777656460 | 10° C | 61% | 1007.8 hPa | 0 mm | - | 907 W/m² | - |
| 1777656391 | 10° C | 59% | 1007.8 hPa | 0 mm | - | 904 W/m² | - |
| 1777656329 | 10° C | 59% | 1007.8 hPa | 0 mm | - | 905 W/m² | - |
| 1777656269 | 10° C | 60% | 1007.8 hPa | 0 mm | - | 902 W/m² | - |
| 1777656210 | 10° C | 58% | 1007.8 hPa | 0 mm | - | 898 W/m² | - |
| 1777656154 | 10° C | 61% | 1007.8 hPa | 0 mm | - | 900 W/m² | - |
| 1777656084 | 10° C | 60% | 1007.8 hPa | 0 mm | - | 905 W/m² | - |
| 1777656023 | 10° C | 59% | 1007.8 hPa | 0 mm | - | 902 W/m² | - |
| 1777655964 | 9.44° C | 62% | 1007.8 hPa | 0 mm | - | 902 W/m² | - |
| 1777655904 | 9.44° C | 59% | 1007.8 hPa | 0 mm | - | 900 W/m² | - |
| 1777655848 | 9.44° C | 62% | 1007.9 hPa | 0 mm | - | 898 W/m² | - |
| 1777655772 | 9.44° C | 60% | 1007.8 hPa | 0 mm | - | 898 W/m² | - |
| 1777655710 | 9.44° C | 58% | 1007.6 hPa | 0 mm | - | 900 W/m² | - |
| 1777655650 | 9.44° C | 60% | 1007.8 hPa | 0 mm | - | 898 W/m² | - |
| 1777655599 | 9.44° C | 59% | 1007.8 hPa | 0 mm | - | 898 W/m² | - |
| 1777655530 | 9.44° C | 60% | 1007.8 hPa | 0 mm | - | 896 W/m² | - |
| 1777655463 | 9.44° C | 58% | 1007.8 hPa | 0 mm | - | 898 W/m² | - |
| 1777655404 | 9.44° C | 58% | 1007.6 hPa | 0 mm | - | 896 W/m² | - |
| 1777655345 | 9.44° C | 59% | 1007.8 hPa | 0 mm | - | 896 W/m² | - |
* Rain latest hour (hover to see other rain measurements)
** Current wind speed in m/s (hover to see current wind gust speed)